Index of /20260505/WXO-DD/model_gdps/15km/00/005
Name Last modified Size Description
Parent Directory -
20260505T00Z_MSC_GDPS_AirTemp_AGL-120m_LatLon0.15_PT005H.grib2 2026-05-05 03:43 891K
20260505T00Z_MSC_GDPS_AirTemp_AGL-2m_LatLon0.15_PT005H.grib2 2026-05-05 03:43 1.0M
20260505T00Z_MSC_GDPS_AirTemp_AGL-40m_LatLon0.15_PT005H.grib2 2026-05-05 03:43 795K
20260505T00Z_MSC_GDPS_AirTemp_AGL-80m_LatLon0.15_PT005H.grib2 2026-05-05 03:43 900K
20260505T00Z_MSC_GDPS_Albedo_Sfc_LatLon0.15_PT005H.grib2 2026-05-05 03:43 242K
20260505T00Z_MSC_GDPS_ConvectivePrecip-Accum_Sfc_LatLon0.15_PT005H.grib2 2026-05-05 03:43 1.4M
20260505T00Z_MSC_GDPS_DewPointDepression_AGL-2m_LatLon0.15_PT005H.grib2 2026-05-05 03:43 765K
20260505T00Z_MSC_GDPS_DewPoint_AGL-2m_LatLon0.15_PT005H.grib2 2026-05-05 03:43 596K
20260505T00Z_MSC_GDPS_DownwardLongwaveRadiationFlux-Accum_Sfc_LatLon0.15_PT005H.grib2 2026-05-05 03:43 1.0M
20260505T00Z_MSC_GDPS_DownwardShortwaveRadiationFlux-Accum_Sfc_LatLon0.15_PT005H.grib2 2026-05-05 03:43 729K
20260505T00Z_MSC_GDPS_FreezingRain-Accum1h_Sfc_LatLon0.15_PT005H.grib2 2026-05-05 03:43 28K
20260505T00Z_MSC_GDPS_FreezingRain-Accum_Sfc_LatLon0.15_PT005H.grib2 2026-05-05 03:43 51K
20260505T00Z_MSC_GDPS_IcePellets-Accum1h_Sfc_LatLon0.15_PT005H.grib2 2026-05-05 03:43 15K
20260505T00Z_MSC_GDPS_IcePellets-Accum_Sfc_LatLon0.15_PT005H.grib2 2026-05-05 03:43 24K
20260505T00Z_MSC_GDPS_LatentHeatNetFlux_Sfc_LatLon0.15_PT005H.grib2 2026-05-05 03:43 536K
20260505T00Z_MSC_GDPS_NetLongwaveRadiationFlux-Accum_Sfc_LatLon0.15_PT005H.grib2 2026-05-05 03:43 1.4M
20260505T00Z_MSC_GDPS_NetShortwaveRadiationFlux-Accum_Sfc_LatLon0.15_PT005H.grib2 2026-05-05 03:43 685K
20260505T00Z_MSC_GDPS_O3MixingRatio_Sfc_LatLon0.15_PT005H.grib2 2026-05-05 04:44 2.0M
20260505T00Z_MSC_GDPS_O3_EAtm_LatLon0.15_PT005H.grib2 2026-05-05 04:44 2.5M
20260505T00Z_MSC_GDPS_PlanetaryBoundaryLayerHeight_Sfc_LatLon0.15_PT005H.grib2 2026-05-05 03:43 2.5M
20260505T00Z_MSC_GDPS_Precip-Accum1h_Sfc_LatLon0.15_PT005H.grib2 2026-05-05 03:43 3.0M
20260505T00Z_MSC_GDPS_Precip-Accum_Sfc_LatLon0.15_PT005H.grib2 2026-05-05 03:43 3.5M
20260505T00Z_MSC_GDPS_PrecipRate_Sfc_LatLon0.15_PT005H.grib2 2026-05-05 03:43 2.8M
20260505T00Z_MSC_GDPS_Pressure_MSL_LatLon0.15_PT005H.grib2 2026-05-05 03:43 814K
20260505T00Z_MSC_GDPS_Pressure_Sfc_LatLon0.15_PT005H.grib2 2026-05-05 03:43 1.1M
20260505T00Z_MSC_GDPS_RadiativeTemp_Sfc_LatLon0.15_PT005H.grib2 2026-05-05 03:43 659K
20260505T00Z_MSC_GDPS_Rain-Accum1h_Sfc_LatLon0.15_PT005H.grib2 2026-05-05 03:43 1.5M
20260505T00Z_MSC_GDPS_Rain-Accum_Sfc_LatLon0.15_PT005H.grib2 2026-05-05 03:43 2.4M
20260505T00Z_MSC_GDPS_RelativeHumidity_AGL-2m_LatLon0.15_PT005H.grib2 2026-05-05 03:43 1.1M
20260505T00Z_MSC_GDPS_Runoff-Accum_Sfc_LatLon0.15_PT005H.grib2 2026-05-05 03:43 63K
20260505T00Z_MSC_GDPS_SensibleHeatNetFlux_Sfc_LatLon0.15_PT005H.grib2 2026-05-05 03:43 647K
20260505T00Z_MSC_GDPS_Snow-Accum1h_Sfc_LatLon0.15_PT005H.grib2 2026-05-05 03:43 1.0M
20260505T00Z_MSC_GDPS_Snow-Accum_Sfc_LatLon0.15_PT005H.grib2 2026-05-05 03:43 1.6M
20260505T00Z_MSC_GDPS_SnowDepth_Sfc_LatLon0.15_PT005H.grib2 2026-05-05 03:43 1.7M
20260505T00Z_MSC_GDPS_SoilTemp_DBS-0to10cm_LatLon0.15_PT005H.grib2 2026-05-05 03:43 492K
20260505T00Z_MSC_GDPS_SoilTemp_Sfc_LatLon0.15_PT005H.grib2 2026-05-05 03:43 568K
20260505T00Z_MSC_GDPS_SoilVolumetricWaterContent_DBS-0to10cm_LatLon0.15_PT005H.grib2 2026-05-05 03:43 591K
20260505T00Z_MSC_GDPS_SoilVolumetricWaterContent_DBS-0to1cm_LatLon0.15_PT005H.grib2 2026-05-05 03:43 650K
20260505T00Z_MSC_GDPS_SpecificHumidity_AGL-120m_LatLon0.15_PT005H.grib2 2026-05-05 03:43 1.1M
20260505T00Z_MSC_GDPS_SpecificHumidity_AGL-2m_LatLon0.15_PT005H.grib2 2026-05-05 03:43 1.2M
20260505T00Z_MSC_GDPS_SpecificHumidity_AGL-40m_LatLon0.15_PT005H.grib2 2026-05-05 03:43 1.1M
20260505T00Z_MSC_GDPS_SpecificHumidity_AGL-80m_LatLon0.15_PT005H.grib2 2026-05-05 03:43 1.1M
20260505T00Z_MSC_GDPS_SpecificHumidity_Sfc_LatLon0.15_PT005H.grib2 2026-05-05 03:43 660K
20260505T00Z_MSC_GDPS_TotalCloudCover_Sfc_LatLon0.15_PT005H.grib2 2026-05-05 03:43 820K
20260505T00Z_MSC_GDPS_UVIndex-ClearSky_Sfc_LatLon0.15_PT005H.grib2 2026-05-05 04:44 1.1M
20260505T00Z_MSC_GDPS_UVIndex_Sfc_LatLon0.15_PT005H.grib2 2026-05-05 04:44 1.5M
20260505T00Z_MSC_GDPS_UpwardLongwaveRadiationFlux_NTAtm_LatLon0.15_PT005H.grib2 2026-05-05 03:43 823K
20260505T00Z_MSC_GDPS_WindDir_AGL-10m_LatLon0.15_PT005H.grib2 2026-05-05 03:43 1.3M
20260505T00Z_MSC_GDPS_WindDir_AGL-120m_LatLon0.15_PT005H.grib2 2026-05-05 03:43 1.3M
20260505T00Z_MSC_GDPS_WindDir_AGL-40m_LatLon0.15_PT005H.grib2 2026-05-05 03:43 1.4M
20260505T00Z_MSC_GDPS_WindDir_AGL-80m_LatLon0.15_PT005H.grib2 2026-05-05 03:43 1.3M
20260505T00Z_MSC_GDPS_WindDir_IsbL-0700_LatLon0.15_PT005H.grib2 2026-05-05 03:43 1.6M
20260505T00Z_MSC_GDPS_WindGust-Max_AGL-10m_LatLon0.15_PT005H.grib2 2026-05-05 03:43 1.8M
20260505T00Z_MSC_GDPS_WindGust-Min_AGL-10m_LatLon0.15_PT005H.grib2 2026-05-05 03:43 2.1M
20260505T00Z_MSC_GDPS_WindGust_AGL-10m_LatLon0.15_PT005H.grib2 2026-05-05 03:43 2.1M
20260505T00Z_MSC_GDPS_WindSpeed_AGL-10m_LatLon0.15_PT005H.grib2 2026-05-05 03:43 1.1M
20260505T00Z_MSC_GDPS_WindSpeed_AGL-120m_LatLon0.15_PT005H.grib2 2026-05-05 03:43 1.2M
20260505T00Z_MSC_GDPS_WindSpeed_AGL-40m_LatLon0.15_PT005H.grib2 2026-05-05 03:43 1.2M
20260505T00Z_MSC_GDPS_WindSpeed_AGL-80m_LatLon0.15_PT005H.grib2 2026-05-05 03:43 1.2M
20260505T00Z_MSC_GDPS_WindSpeed_IsbL-0700_LatLon0.15_PT005H.grib2 2026-05-05 03:43 1.5M
20260505T00Z_MSC_GDPS_WindU_AGL-10m_LatLon0.15_PT005H.grib2 2026-05-05 03:43 1.3M
20260505T00Z_MSC_GDPS_WindU_AGL-120m_LatLon0.15_PT005H.grib2 2026-05-05 03:43 1.0M
20260505T00Z_MSC_GDPS_WindU_AGL-40m_LatLon0.15_PT005H.grib2 2026-05-05 03:43 1.0M
20260505T00Z_MSC_GDPS_WindU_AGL-80m_LatLon0.15_PT005H.grib2 2026-05-05 03:43 1.0M
20260505T00Z_MSC_GDPS_WindU_IsbL-0700_LatLon0.15_PT005H.grib2 2026-05-05 03:43 1.2M
20260505T00Z_MSC_GDPS_WindV_AGL-10m_LatLon0.15_PT005H.grib2 2026-05-05 03:43 1.6M
20260505T00Z_MSC_GDPS_WindV_AGL-120m_LatLon0.15_PT005H.grib2 2026-05-05 03:43 958K
20260505T00Z_MSC_GDPS_WindV_AGL-40m_LatLon0.15_PT005H.grib2 2026-05-05 03:43 954K
20260505T00Z_MSC_GDPS_WindV_AGL-80m_LatLon0.15_PT005H.grib2 2026-05-05 03:43 959K
20260505T00Z_MSC_GDPS_WindV_IsbL-0700_LatLon0.15_PT005H.grib2 2026-05-05 03:43 1.2M